CAPE
1437 1138 1066 579 452 232 21 22 0 0 0 0 0 0 0 0 0 0 0 0 0 0 0 0 0 2 5 15 16 24 35 24 28 38 12 16 23 17 20 15 23 25 19 15 24 20 28 23 21
744 647 263 327 298 5 0 0 0 0 0 0 0 0 0 0 0 0 0 0 0 0 0 0 0 1 5 13 18 23 44 23 10 24 24 27 24 23 19 21 22 21 24 27 25 22 19 22 17
442 46 141 258 1 0 0 0 0 0 0 0 0 0 0 0 0 0 0 0 0 0 0 0 0 0 5 9 16 22 8 12 16 16 20 18 19 18 18 18 16 19 22 22 21 23 24 21 27
36 0 0 0 0 0 0 0 0 0 0 0 0 0 0 0 0 0 0 0 0 0 0 0 0 0 10 15 17 17 15 15 14 12 13 11 6 6 10 10 18 17 16 15 20 20 17 18 15
8 0 0 0 0 0 0 0 0 0 0 0 0 0 0 0 0 0 0 0 0 0 0 0 0 0 0 2 4 9 8 7 7 7 4 1 0 1 4 3 8 16 18 19 21 20 20 22 22
0 0 0 0 0 0 0 0 0 0 0 0 0 0 0 0 0 0 0 0 0 0 0 0 0 0 0 0 0 0 0 0 0 0 0 0 0 0 0 1 2 9 15 16 22 18 19 17 25
0 0 0 0 0 0 0 0 0 0 0 0 0 0 0 0 0 0 0 0 0 0 0 0 0 0 0 0 0 0 0 0 0 0 0 0 0 0 0 0 3 11 14 19 20 22 22 22 15
0 0 0 0 0 0 0 0 0 0 0 0 0 0 0 0 0 0 0 0 0 0 0 0 0 0 0 0 0 0 0 0 0 0 0 0 0 0 0 0 7 19 18 22 22 28 31 24 10
0 0 0 0 0 0 0 0 0 0 0 0 0 0 0 0 0 0 0 0 0 0 0 0 0 0 0 0 0 0 0 0 0 0 0 0 0 0 0 0 3 8 24 21 28 27 28 12 0
0 0 0 0 0 0 0 0 0 0 0 0 0 0 0 0 0 0 0 0 0 0 0 0 0 0 0 0 0 0 0 0 0 0 0 0 0 0 0 0 1 1 12 7 11 7 5 0 0
0 0 0 0 0 0 0 0 0 0 0 0 0 0 0 0 0 0 0 0 0 0 0 0 0 0 0 0 0 0 0 0 0 0 0 0 0 0 0 0 0 0 0 0 0 0 0 0 0
0 0 0 0 0 0 0 0 0 0 0 0 0 0 0 0 0 0 0 0 0 0 0 0 0 0 0 0 0 0 0 0 0 0 0 0 0 0 0 0 0 0 0 0 0 0 0 0 0
0 0 0 0 0 0 0 0 0 0 0 0 0 0 0 0 0 0 0 0 0 0 0 0 0 0 0 0 0 0 0 0 0 0 0 0 0 0 0 0 0 0 0 0 0 0 0 0 0
0 0 0 0 0 0 0 0 0 0 0 0 0 0 0 0 0 0 0 0 0 0 0 0 0 0 0 0 0 0 0 0 0 0 0 0 0 0 0 0 0 0 0 0 0 0 0 0 0
0 0 0 0 0 0 0 0 0 0 0 0 0 0 0 0 0 0 0 0 0 0 0 0 0 0 0 0 0 0 0 0 0 0 0 0 0 0 0 0 0 0 0 0 0 0 0 0 0
0 0 0 0 0 0 0 0 0 0 0 0 0 0 0 0 0 0 0 0 0 0 0 0 0 0 0 0 0 0 0 0 0 0 0 0 0 0 0 0 0 0 0 0 0 0 0 0 0
0 0 0 0 0 0 0 0 0 0 0 0 0 0 0 0 0 0 0 0 0 0 0 0 0 0 0 0 0 0 0 0 0 0 0 0 0 0 0 0 0 0 0 0 0 0 0 0 0
0 0 0 0 0 0 0 0 0 0 0 0 0 0 0 0 0 0 0 0 0 0 0 0 0 0 0 0 0 0 0 0 0 0 0 0 0 0 0 0 0 0 0 0 0 0 0 0 0
0 0 0 0 0 0 0 0 0 0 0 0 0 0 0 0 0 0 0 0 0 0 0 0 0 0 0 0 0 0 0 0 0 0 0 0 0 0 0 0 0 0 0 0 0 0 0 0 0
0 0 0 0 0 0 0 0 0 0 0 0 0 0 0 0 0 0 0 0 0 0 0 0 0 0 0 0 0 0 0 0 0 0 0 0 0 0 0 0 0 0 0 0 0 0 0 0 0
0 0 0 0 0 0 0 0 0 0 0 0 0 0 0 0 0 0 0 0 0 0 0 0 0 0 0 0 0 0 0 0 0 0 0 0 0 0 0 0 0 0 0 0 0 0 0 0 0
0 0 0 0 0 0 0 0 0 0 0 0 0 0 0 0 0 0 0 0 0 0 0 0 0 0 0 0 0 0 0 0 0 0 0 0 0 0 0 0 0 0 0 0 0 0 0 0 0
0 0 0 0 0 0 0 0 0 0 0 0 0 0 0 0 0 0 0 0 0 0 0 0 0 0 0 0 0 0 0 0 0 0 0 0 0 0 0 0 0 0 0 0 0 0 0 0 0
0 0 0 0 0 0 0 0 0 0 0 0 0 0 0 0 0 0 0 0 0 0 0 0 0 0 0 0 0 0 0 0 0 0 0 0 0 0 0 0 0 0 0 0 0 0 0 0 0
0 0 0 0 0 0 0 0 0 0 0 0 0 0 0 0 0 0 0 0 0 0 0 0 0 0 0 0 0 0 0 0 0 0 0 0 0 0 0 0 0 0 0 0 0 0 0 0 0
0 0 0 0 0 0 0 0 0 0 0 0 0 0 0 0 0 0 0 0 0 0 0 0 0 0 0 0 0 0 0 0 0 0 0 0 0 0 0 0 0 0 0 0 0 0 0 0 0
0 0 0 0 0 0 0 0 0 0 0 0 0 0 0 0 0 0 0 0 0 0 0 0 0 0 0 0 0 0 0 0 0 0 0 0 0 0 0 0 0 0 0 0 0 0 0 0 0
0 0 0 0 0 0 0 0 0 0 0 0 0 0 0 0 0 0 0 0 0 0 0 0 0 0 0 0 0 0 0 0 0 0 0 0 0 0 0 0 0 0 0 0 0 0 0 0 0
0 0 0 0 0 0 0 0 0 0 0 0 0 0 0 0 0 0 0 0 0 0 0 0 0 0 0 0 0 0 0 0 0 0 0 0 0 0 0 0 0 0 0 0 0 0 0 0 0
0 0 0 0 0 0 0 0 0 0 0 0 0 0 0 0 0 0 0 0 0 0 0 0 0 0 0 0 0 0 0 0 0 0 0 0 0 0 0 0 0 0 0 0 0 0 0 0 0
CIN
-167 -191 -187 -174 -72 -74 -82 -87 -0 0 0 0 0 0 0 0 0 0 0 0 0 0 0 0 0 0 0 0 0 -0 -0 -0 0 -0 0 -0 0 0 0 0 0 -0 0 0 -0 0 0 0 -0
-237 -206 -257 -163 -61 -19 0 0 0 0 0 0 0 0 0 0 0 0 0 0 0 0 0 0 0 0 0 -0 -0 0 -0 -1 -0 -0 -0 0 -0 0 0 0 0 0 0 0 0 0 0 0 0
-278 -72 -178 -126 -2 0 0 0 0 0 0 0 0 0 0 0 0 0 0 0 0 0 0 0 0 0 -0 0 -0 0 -0 -0 0 0 0 0 0 0 0 0 0 0 0 0 0 0 0 0 0
-287 0 0 0 0 0 0 0 0 0 0 0 0 0 0 0 0 0 0 0 0 0 0 0 0 0 -0 0 0 0 0 0 0 0 0 0 0 0 0 0 0 0 0 0 0 0 0 0 0
-38 0 0 0 0 0 0 0 0 0 0 0 0 0 0 0 0 0 0 0 0 0 0 0 0 0 0 0 0 0 0 0 0 0 0 0 0 0 0 0 0 0 0 0 0 0 0 0 0
0 0 0 0 0 0 0 0 0 0 0 0 0 0 0 0 0 0 0 0 0 0 0 0 0 0 0 0 0 0 0 0 -0 0 0 0 0 0 0 -0 0 0 0 0 0 0 0 0 0
0 0 0 0 0 0 0 0 0 0 0 0 0 0 0 0 0 0 0 0 0 0 0 0 0 0 0 0 0 0 0 0 0 0 0 0 0 0 0 -0 0 0 0 0 0 0 0 0 0
0 0 0 0 0 0 0 0 0 0 0 0 0 0 0 0 0 0 0 0 0 0 0 0 0 0 0 0 0 0 0 0 0 0 0 0 0 0 0 0 -0 -0 0 0 0 0 0 0 0
0 0 0 0 0 0 0 0 0 0 0 0 0 0 0 0 0 0 0 0 0 0 0 0 0 0 0 0 0 0 0 0 0 0 0 0 0 0 0 0 0 0 0 0 0 0 0 0 0
0 0 0 0 0 0 0 0 0 0 0 0 0 0 0 0 0 0 0 0 0 0 0 0 0 0 0 0 0 0 0 0 0 0 0 0 0 0 0 0 -0 0 0 0 0 0 0 0 0
0 0 0 0 0 0 0 0 0 0 0 0 0 0 0 0 0 0 0 0 0 0 0 0 0 0 0 0 0 0 0 0 0 0 0 0 0 0 0 0 0 0 0 0 0 0 0 0 0
0 0 0 0 0 0 0 0 0 0 0 0 0 0 0 0 0 0 0 0 0 0 0 0 0 0 0 0 0 0 0 0 0 0 0 0 0 0 0 0 0 0 0 0 0 0 0 0 0
0 0 0 0 0 0 0 0 0 0 0 0 0 0 0 0 0 0 0 0 0 0 0 0 0 0 0 0 0 0 0 0 0 0 0 0 0 0 0 0 0 0 0 0 0 0 0 0 0
0 0 0 0 0 0 0 0 0 0 0 0 0 0 0 0 0 0 0 0 0 0 0 0 0 0 0 0 0 0 0 0 0 0 0 0 0 0 0 0 0 0 0 0 0 0 0 0 0
0 0 0 0 0 0 0 0 0 0 0 0 0 0 0 0 0 0 0 0 0 0 0 0 0 0 0 0 0 0 0 0 0 0 0 0 0 0 0 0 0 0 0 0 0 0 0 0 0
0 0 0 0 0 0 0 0 0 0 0 0 0 0 0 0 0 0 0 0 0 0 0 0 0 0 0 0 0 0 0 0 0 0 0 0 0 0 0 0 0 0 0 0 0 0 0 0 0
0 0 0 0 0 0 0 0 0 0 0 0 0 0 0 0 0 0 0 0 0 0 0 0 0 0 0 0 0 0 0 0 0 0 0 0 0 0 0 0 0 0 0 0 0 0 0 0 0
0 0 0 0 0 0 0 0 0 0 0 0 0 0 0 0 0 0 0 0 0 0 0 0 0 0 0 0 0 0 0 0 0 0 0 0 0 0 0 0 0 0 0 0 0 0 0 0 0
0 0 0 0 0 0 0 0 0 0 0 0 0 0 0 0 0 0 0 0 0 0 0 0 0 0 0 0 0 0 0 0 0 0 0 0 0 0 0 0 0 0 0 0 0 0 0 0 0
0 0 0 0 0 0 0 0 0 0 0 0 0 0 0 0 0 0 0 0 0 0 0 0 0 0 0 0 0 0 0 0 0 0 0 0 0 0 0 0 0 0 0 0 0 0 0 0 0
0 0 0 0 0 0 0 0 0 0 0 0 0 0 0 0 0 0 0 0 0 0 0 0 0 0 0 0 0 0 0 0 0 0 0 0 0 0 0 0 0 0 0 0 0 0 0 0 0
0 0 0 0 0 0 0 0 0 0 0 0 0 0 0 0 0 0 0 0 0 0 0 0 0 0 0 0 0 0 0 0 0 0 0 0 0 0 0 0 0 0 0 0 0 0 0 0 0
0 0 0 0 0 0 0 0 0 0 0 0 0 0 0 0 0 0 0 0 0 0 0 0 0 0 0 0 0 0 0 0 0 0 0 0 0 0 0 0 0 0 0 0 0 0 0 0 0
0 0 0 0 0 0 0 0 0 0 0 0 0 0 0 0 0 0 0 0 0 0 0 0 0 0 0 0 0 0 0 0 0 0 0 0 0 0 0 0 0 0 0 0 0 0 0 0 0
0 0 0 0 0 0 0 0 0 0 0 0 0 0 0 0 0 0 0 0 0 0 0 0 0 0 0 0 0 0 0 0 0 0 0 0 0 0 0 0 0 0 0 0 0 0 0 0 0
0 0 0 0 0 0 0 0 0 0 0 0 0 0 0 0 0 0 0 0 0 0 0 0 0 0 0 0 0 0 0 0 0 0 0 0 0 0 0 0 0 0 0 0 0 0 0 -1 0
0 0 0 0 0 0 0 0 0 0 0 0 0 0 0 0 0 0 0 0 0 0 0 0 0 0 0 0 0 0 0 0 0 0 0 0 0 0 0 0 0 0 0 0 0 0 0 0 0
0 0 0 0 0 0 0 0 0 0 0 0 0 0 0 0 0 0 0 0 0 0 0 0 0 0 0 0 0 0 0 0 0 0 0 0 0 0 0 0 0 0 0 0 0 0 0 0 0
0 0 0 0 0 0 0 0 0 0 0 0 0 0 0 0 0 0 0 0 0 0 0 0 0 0 0 0 0 0 0 0 0 0 0 0 0 0 0 0 0 0 0 0 0 0 0 0 0
0 0 0 0 0 0 0 0 0 0 0 0 0 0 0 0 0 0 0 0 0 0 0 0 0 0 0 0 0 0 0 0 0 0 0 0 0 0 0 0 0 0 0 0 0 0 0 0 0
Wind_Speed
4 5 2 4 4 3 4 3 4 3 5 6 6 12 12 5 5 6 5 7 10 11 9 9 12 11 11 12 11 12 13 13 13 14 12 13 15 14 14 14 15 15 16 16 17 17 16 15 14
3 5 1 1 5 3 2 3 10 6 7 13 10 6 8 4 5 7 4 7 10 10 8 6 11 11 10 11 11 11 14 12 12 15 13 15 14 14 14 15 16 15 16 17 17 17 18 17 17
3 1 3 2 3 2 5 3 7 4 4 3 6 8 5 4 5 5 5 9 10 8 7 6 10 10 9 11 10 12 11 13 13 13 14 14 14 14 13 14 14 16 16 16 16 17 18 17 17
1 5 4 2 4 8 6 7 8 6 6 9 8 8 5 6 4 7 8 9 9 8 7 8 10 10 11 12 13 13 13 13 12 13 14 14 13 13 14 14 15 15 16 16 16 16 16 17 17
3 2 2 4 7 4 5 8 7 6 5 4 2 5 4 3 9 8 8 9 8 7 6 5 10 10 11 12 12 12 12 12 12 12 12 12 11 13 14 13 14 15 15 15 16 16 15 16 17
4 3 4 2 5 4 3 8 10 8 7 4 8 7 3 6 7 6 8 8 7 7 6 6 8 8 8 10 12 10 11 11 10 10 11 10 9 11 14 13 14 15 15 14 15 14 16 16 15
2 3 3 5 8 4 2 6 4 5 4 5 8 6 5 4 7 7 9 8 8 7 7 5 5 7 9 8 10 9 10 10 11 13 15 15 15 14 14 14 14 14 15 15 15 14 15 15 15
3 4 6 7 4 3 2 4 2 7 4 2 4 7 6 6 8 8 7 8 7 7 6 6 5 5 4 4 8 10 9 11 12 14 15 15 16 15 14 15 13 16 16 17 17 17 17 17 18
3 5 3 5 3 4 3 4 4 5 9 6 6 5 8 9 9 6 5 4 5 5 6 6 5 4 4 3 4 6 9 10 11 11 14 10 5 7 8 14 16 16 17 18 19 19 19 19 18
5 4 1 3 3 5 6 4 7 5 6 5 7 6 7 8 5 6 7 6 5 5 4 5 4 4 4 2 4 3 4 4 3 5 5 5 5 6 9 11 16 16 18 19 19 18 18 15 6
4 3 3 4 4 5 5 5 4 8 3 8 12 10 8 5 6 8 6 7 7 5 4 5 3 3 4 4 3 3 2 3 3 4 4 4 4 4 4 4 3 3 12 5 7 6 5 6 6
6 6 4 1 4 3 4 5 4 4 1 12 14 12 8 8 7 8 7 6 7 6 6 5 4 4 4 2 3 3 3 3 3 2 5 4 3 4 4 3 3 4 2 4 4 3 5 5 6
4 3 5 1 5 4 5 4 4 3 8 13 11 9 9 8 8 7 8 6 8 7 6 4 5 4 2 4 2 3 3 3 2 3 4 3 3 4 4 3 2 2 3 2 4 4 4 5 5
4 6 6 3 2 1 2 2 4 3 9 10 10 10 8 10 9 6 7 6 6 7 7 6 6 4 2 2 2 2 1 2 3 3 3 5 3 3 4 4 3 3 3 4 4 5 5 5 4
8 5 2 5 5 2 2 1 5 8 8 10 9 8 8 8 9 8 7 7 9 6 8 7 5 4 4 2 1 3 1 2 3 3 5 6 4 4 5 4 3 2 3 5 5 6 6 7 7
3 4 1 3 6 2 5 7 4 10 12 10 9 8 8 8 8 8 8 8 8 7 8 6 4 6 4 3 2 3 2 2 2 3 3 4 5 5 5 4 3 3 3 3 4 4 5 7 8
2 3 4 2 8 4 4 5 5 8 10 10 10 9 9 8 7 7 9 9 8 8 7 6 5 6 4 2 2 3 4 3 2 3 2 3 4 5 4 4 4 4 3 3 3 3 3 5 7
2 3 3 5 7 5 4 9 6 11 10 12 10 10 10 10 11 10 9 8 8 7 6 6 4 5 3 1 1 3 3 2 1 1 1 2 2 4 4 4 5 5 4 3 2 2 3 3 5
2 2 3 1 3 3 7 8 9 14 9 9 10 10 11 11 10 9 9 9 8 6 6 5 6 4 2 3 2 2 1 1 1 1 1 1 1 2 3 3 4 5 4 3 4 2 3 3 3
1 3 4 1 4 4 6 11 11 15 18 16 13 11 11 8 7 8 9 9 9 9 9 7 7 6 4 3 2 2 3 3 1 2 1 1 1 2 2 3 4 4 3 5 4 3 3 3 2
2 1 1 2 2 3 6 9 3 6 5 7 8 8 9 13 12 11 11 11 9 9 9 9 8 7 5 5 2 0 1 1 1 2 2 3 3 1 2 2 2 4 3 3 4 3 4 4 3
2 1 2 3 5 2 4 7 6 5 8 10 11 10 10 11 12 16 15 10 10 9 8 8 8 7 6 6 3 3 3 2 3 3 2 4 4 3 3 1 2 3 2 3 3 5 3 3 5
3 2 1 1 0 3 2 3 9 3 7 10 13 12 11 11 14 16 14 14 11 9 9 8 8 7 7 6 5 3 2 2 1 1 3 3 3 3 4 2 2 3 3 4 5 5 5 3 2
1 3 2 3 3 2 5 5 8 6 9 5 7 13 13 11 10 11 12 10 9 8 8 8 8 7 7 7 6 6 6 3 2 3 3 3 3 3 3 2 2 3 4 4 5 5 5 4 4
3 4 4 3 3 6 1 2 12 7 6 8 11 12 12 11 11 10 12 10 9 10 9 8 8 7 8 8 7 8 7 6 6 5 4 3 2 2 4 3 3 3 4 6 5 5 5 5 4
2 5 6 3 2 5 4 7 8 1 1 4 6 10 10 10 10 13 14 13 12 11 10 9 9 7 8 8 8 7 8 5 5 5 4 4 3 4 4 4 5 5 5 5 4 3 4 5 4
1 1 3 2 2 2 5 7 5 1 2 1 5 8 11 11 11 14 11 14 13 13 13 12 9 9 9 9 7 7 7 7 6 7 5 4 4 3 5 5 5 5 5 6 4 3 5 5 4
2 2 1 2 1 5 6 6 6 5 10 7 8 9 9 9 10 11 12 14 13 12 12 11 11 11 9 8 7 7 7 7 7 6 6 6 6 4 5 5 5 5 5 5 2 4 6 5 4
1 2 2 2 5 5 3 8 6 6 7 10 11 11 11 10 11 12 12 11 13 10 11 13 11 10 9 8 7 8 7 7 7 6 6 6 5 5 6 6 5 5 5 5 3 5 7 6 6
3 5 6 6 4 2 5 10 5 3 5 9 11 12 10 12 12 11 12 11 11 12 11 13 12 12 11 10 8 8 7 7 7 6 7 6 6 5 6 5 4 5 4 4 4 6 6 6 6
Wind_Direction
286 255 154 31 48 84 124 237 352 80 51 355 7 80 104 53 40 131 245 96 78 81 63 38 34 26 24 30 29 33 37 31 33 27 21 29 26 16 11 17 14 9 9 7 6 359 355 355 2
303 285 42 70 79 57 40 43 84 80 133 128 100 114 56 75 71 123 80 87 80 90 63 41 34 34 31 35 32 35 40 35 26 24 20 27 25 13 10 17 12 8 5 7 4 358 350 354 354
293 349 87 121 85 86 139 170 117 78 69 85 110 49 73 69 123 139 157 104 89 97 87 46 42 38 35 44 42 45 35 30 27 20 23 20 22 17 16 16 13 8 6 5 359 1 356 351 350
11 7 12 77 121 350 114 161 133 119 62 67 107 71 56 299 103 149 104 97 87 104 101 58 52 47 42 37 33 35 33 29 27 23 19 19 20 21 23 16 13 6 5 360 360 358 353 351 348
6 55 16 76 50 100 122 160 132 108 93 63 104 118 82 41 110 109 101 92 99 88 108 103 62 50 47 45 39 35 33 30 31 31 22 20 18 16 19 17 12 2 2 358 356 356 349 350 346
356 92 40 54 109 121 66 102 105 96 104 145 74 98 148 135 111 126 102 99 105 97 83 62 47 66 54 51 38 36 38 36 35 34 20 16 16 17 8 11 1 360 358 356 354 352 345 347 346
88 65 245 120 145 93 130 72 39 98 90 36 153 85 158 144 162 121 118 111 103 99 89 70 60 52 26 49 28 37 35 33 30 24 18 14 16 11 360 4 352 357 358 353 354 348 351 349 350
97 86 344 22 175 137 33 83 138 71 56 7 104 143 180 209 140 130 128 124 114 102 91 77 60 53 20 21 29 28 27 27 27 24 18 13 6 3 360 4 350 5 355 3 353 358 356 0 354
35 52 23 352 17 137 172 95 31 59 82 40 2 124 148 144 140 144 111 90 93 85 85 74 54 35 13 129 31 40 35 27 33 37 24 9 352 348 18 1 6 7 8 7 7 355 1 357 352
72 80 91 346 345 158 133 119 140 102 113 65 71 49 108 139 157 162 130 135 120 103 84 84 51 27 26 25 40 30 58 43 48 55 37 14 3 353 11 2 18 23 24 16 15 4 2 359 348
21 89 153 359 351 118 108 118 140 137 195 181 171 162 167 163 179 156 141 147 146 134 96 95 57 33 26 26 52 35 44 47 28 51 37 29 15 358 347 2 29 35 29 16 8 353 344 337 343
92 40 81 67 340 87 106 128 98 84 240 143 158 159 163 166 130 128 123 135 137 136 137 140 103 57 28 56 54 47 52 46 30 36 43 44 20 357 340 9 40 47 23 7 336 323 314 328 325
91 129 62 123 66 80 111 56 148 105 110 130 143 148 166 140 133 123 133 135 140 134 144 143 129 91 33 59 41 42 35 31 6 30 45 56 33 359 343 1 62 41 1 337 322 311 310 312 308
115 108 139 151 78 70 89 174 112 198 135 133 143 166 160 158 145 142 144 174 141 139 133 138 142 151 133 123 101 82 48 16 33 33 51 38 44 5 358 349 13 12 355 330 323 315 314 303 302
136 101 159 182 183 189 75 236 230 159 138 148 159 181 174 170 153 168 161 136 150 169 150 147 169 166 132 136 97 114 283 58 45 44 34 22 31 14 0 353 13 342 332 345 337 328 329 327 325
167 125 229 219 167 199 109 274 186 162 142 173 184 199 184 174 167 162 150 150 147 146 159 170 162 138 126 139 181 163 164 104 73 78 38 20 16 22 4 354 353 304 337 356 355 345 344 339 333
314 257 191 207 190 142 173 266 179 180 161 186 197 202 191 186 187 177 164 159 154 157 159 162 168 155 146 217 193 189 156 127 127 83 46 23 12 3 12 347 331 335 330 349 344 337 351 336 334
263 299 315 188 225 181 197 255 198 200 179 196 199 199 197 190 201 180 172 159 156 155 159 166 172 151 129 16 72 68 79 62 97 86 89 53 357 359 9 345 339 347 347 350 335 321 333 314 311
221 258 302 162 204 190 232 250 226 200 197 206 210 204 201 201 203 176 165 153 155 166 169 185 152 176 111 73 69 53 63 244 257 253 146 78 319 343 6 332 335 344 349 333 318 306 332 307 322
318 306 320 115 199 181 279 264 245 179 203 200 198 208 203 201 169 166 166 167 169 183 191 185 181 170 162 139 163 169 191 225 198 242 219 264 282 317 305 349 339 355 359 354 339 327 310 285 321
39 242 113 232 283 259 357 300 239 194 180 202 215 197 200 187 174 178 178 184 181 187 191 188 180 173 167 160 143 157 4 14 33 284 283 274 265 266 288 335 5 341 3 357 331 316 313 309 307
286 17 32 356 42 267 113 288 296 196 199 207 212 210 204 194 181 182 184 184 181 194 182 179 172 171 164 165 149 157 181 200 222 220 233 280 270 264 269 275 348 325 320 342 306 323 311 320 320
242 29 6 348 357 21 274 87 267 94 238 221 216 216 210 202 183 188 189 185 190 171 173 175 170 168 161 159 166 155 190 215 247 273 285 301 290 281 269 221 335 314 323 311 312 330 330 289 283
31 345 4 16 81 10 232 138 278 194 213 237 203 210 203 196 196 186 186 172 177 168 166 169 169 182 172 172 183 183 200 227 265 280 286 291 277 302 294 263 286 291 304 297 299 304 317 297 287
57 65 343 353 5 221 350 95 245 243 257 218 198 199 199 189 180 176 171 175 171 171 172 170 172 190 178 184 190 199 205 209 220 242 245 255 278 277 285 264 280 278 279 283 296 309 312 306 281
227 138 153 273 249 272 359 238 255 301 92 37 176 180 179 189 186 183 178 175 174 174 174 176 178 190 189 191 202 206 207 203 217 232 231 229 232 248 257 267 268 283 282 283 288 295 292 292 292
303 187 180 163 336 29 241 275 294 258 296 96 140 169 195 194 189 189 181 181 176 176 183 180 182 196 195 193 196 202 202 209 220 234 226 230 246 238 252 258 279 281 280 288 290 262 295 295 292
219 272 94 7 210 262 287 282 245 250 244 229 230 215 220 210 195 192 188 185 185 181 181 184 186 191 195 194 193 198 206 215 222 223 230 239 252 245 255 271 269 278 280 295 305 265 282 304 297
141 268 261 134 155 178 291 276 223 245 237 213 227 226 217 214 208 198 192 188 186 182 180 186 187 188 192 189 193 200 211 217 214 216 231 236 243 242 251 258 268 269 287 290 308 284 276 301 305
232 200 153 118 265 225 148 275 251 256 211 202 228 223 215 213 207 198 189 181 184 188 186 191 189 190 191 190 189 200 207 214 217 219 230 241 237 239 247 262 270 275 281 286 291 290 290 310 319